PPDSL SDIM-SDUB

Flight info

Callsign PPDSL
Flight time 0h 40m
Altitude 5000
Route REA
Aircraft C208/L-SDFGR/C

Departure

Time 2026-04-25 23:42
Airport Itanhaém Airport (SDIM)

Arrival

Time 2026-04-26 00:23
Airport Ubatuba Gastão Madeira State Airport (SDUB)
Time Latitude Longitude Altitude Speed Heading
2026-04-25 23:36 -24.16476 -46.78638 11 ft 0 kts 217°
2026-04-25 23:40 -24.16476 -46.78634 13 ft 1 kts 40°
2026-04-25 23:40 -24.16467 -46.78628 13 ft 3 kts 29°
2026-04-25 23:40 -24.16443 -46.78631 13 ft 4 kts 342°
2026-04-25 23:40 -24.16418 -46.78613 12 ft 5 kts 42°
2026-04-25 23:41 -24.16386 -46.78584 11 ft 6 kts 39°
2026-04-25 23:41 -24.16351 -46.78555 12 ft 6 kts 22°
2026-04-25 23:41 -24.16332 -46.78563 12 ft 2 kts 309°
2026-04-25 23:41 -24.16219 -46.78719 13 ft 61 kts 310°
2026-04-25 23:42 -24.15850 -46.79246 85 ft 103 kts 307°
2026-04-25 23:42 -24.15401 -46.79891 382 ft 106 kts 311°
2026-04-25 23:42 -24.15077 -46.80281 613 ft 106 kts 318°
2026-04-25 23:42 -24.14081 -46.80323 629 ft 141 kts 40°
2026-04-25 23:43 -24.13741 -46.79411 1066 ft 125 kts 101°
2026-04-25 23:43 -24.13980 -46.78855 1392 ft 118 kts 121°
2026-04-25 23:43 -24.14403 -46.78088 1673 ft 121 kts 120°
2026-04-25 23:43 -24.14843 -46.77274 1916 ft 125 kts 120°
2026-04-25 23:44 -24.15286 -46.76451 2177 ft 126 kts 119°
2026-04-25 23:44 -24.15734 -46.75616 2461 ft 127 kts 120°
2026-04-25 23:44 -24.16180 -46.74775 2727 ft 128 kts 120°
2026-04-25 23:44 -24.16630 -46.73923 2991 ft 130 kts 120°
2026-04-25 23:45 -24.17078 -46.73060 3258 ft 131 kts 120°
2026-04-25 23:45 -24.17494 -46.72168 3491 ft 133 kts 104°
2026-04-25 23:45 -24.17325 -46.71200 3742 ft 132 kts 61°
2026-04-25 23:45 -24.16893 -46.70316 3995 ft 133 kts 62°
2026-04-25 23:46 -24.16462 -46.69411 4240 ft 135 kts 62°
2026-04-25 23:46 -24.16025 -46.68500 4482 ft 136 kts 62°
2026-04-25 23:46 -24.15586 -46.67580 4745 ft 137 kts 62°
2026-04-25 23:46 -24.15122 -46.66599 4841 ft 149 kts 62°
2026-04-25 23:47 -24.14648 -46.65599 5049 ft 149 kts 62°
2026-04-25 23:47 -24.14150 -46.64543 5065 ft 160 kts 62°
2026-04-25 23:47 -24.13637 -46.63457 5065 ft 165 kts 62°
2026-04-25 23:47 -24.13097 -46.62307 5067 ft 173 kts 62°
2026-04-25 23:48 -24.12543 -46.61117 5068 ft 177 kts 63°
2026-04-25 23:48 -24.11981 -46.59906 5068 ft 180 kts 63°
2026-04-25 23:48 -24.11411 -46.58680 5068 ft 181 kts 63°
2026-04-25 23:48 -24.10846 -46.57468 5066 ft 182 kts 63°
2026-04-25 23:49 -24.10270 -46.56231 5068 ft 182 kts 63°
2026-04-25 23:49 -24.09694 -46.54993 5066 ft 183 kts 63°
2026-04-25 23:49 -24.09115 -46.53752 5065 ft 183 kts 63°
2026-04-25 23:49 -24.08567 -46.52495 5062 ft 183 kts 65°
2026-04-25 23:50 -24.08041 -46.51226 5064 ft 183 kts 65°
2026-04-25 23:50 -24.07523 -46.49971 5060 ft 183 kts 65°
2026-04-25 23:50 -24.06990 -46.48705 5055 ft 183 kts 63°
2026-04-25 23:50 -24.06388 -46.47479 5050 ft 183 kts 62°
2026-04-25 23:51 -24.05804 -46.46258 5112 ft 179 kts 62°
2026-04-25 23:51 -24.05234 -46.45070 5216 ft 174 kts 62°
2026-04-25 23:51 -24.04672 -46.43904 5336 ft 172 kts 62°
2026-04-25 23:51 -24.04117 -46.42749 5452 ft 171 kts 62°
2026-04-25 23:52 -24.03567 -46.41593 5548 ft 171 kts 62°
2026-04-25 23:52 -24.03023 -46.40427 5559 ft 177 kts 64°
2026-04-25 23:52 -24.02506 -46.39195 5559 ft 180 kts 65°
2026-04-25 23:52 -24.01994 -46.37939 5564 ft 181 kts 65°
2026-04-25 23:53 -24.01476 -46.36675 5564 ft 183 kts 65°
2026-04-25 23:53 -24.00955 -46.35401 5565 ft 184 kts 65°
2026-04-25 23:53 -24.00425 -46.34131 5567 ft 184 kts 64°
2026-04-25 23:53 -23.99888 -46.32858 5567 ft 184 kts 64°
2026-04-25 23:54 -23.99354 -46.31585 5567 ft 184 kts 64°
2026-04-25 23:54 -23.98818 -46.30306 5569 ft 184 kts 64°
2026-04-25 23:54 -23.98293 -46.29045 5572 ft 185 kts 64°
2026-04-25 23:54 -23.97760 -46.27767 5570 ft 185 kts 64°
2026-04-25 23:55 -23.97227 -46.26488 5570 ft 185 kts 64°
2026-04-25 23:55 -23.96693 -46.25207 5574 ft 185 kts 64°
2026-04-25 23:55 -23.96160 -46.23928 5572 ft 185 kts 64°
2026-04-25 23:55 -23.95629 -46.22650 5572 ft 185 kts 64°
2026-04-25 23:56 -23.95093 -46.21364 5567 ft 185 kts 64°
2026-04-25 23:56 -23.94553 -46.20089 5571 ft 184 kts 63°
2026-04-25 23:56 -23.93993 -46.18847 5574 ft 184 kts 62°
2026-04-25 23:56 -23.93422 -46.17595 5571 ft 184 kts 62°
2026-04-25 23:57 -23.92799 -46.16375 5573 ft 183 kts 56°
2026-04-25 23:57 -23.92063 -46.15237 5572 ft 183 kts 52°
2026-04-25 23:57 -23.91311 -46.14113 5569 ft 183 kts 52°
2026-04-25 23:57 -23.90643 -46.12930 5570 ft 183 kts 62°
2026-04-25 23:58 -23.90127 -46.11652 5570 ft 184 kts 69°
2026-04-25 23:58 -23.89696 -46.10351 5675 ft 178 kts 69°
2026-04-25 23:58 -23.89284 -46.09111 5809 ft 173 kts 69°
2026-04-25 23:58 -23.88875 -46.07881 5950 ft 170 kts 69°
2026-04-25 23:59 -23.88474 -46.06667 6064 ft 171 kts 69°
2026-04-25 23:59 -23.88066 -46.05421 6070 ft 177 kts 69°
2026-04-25 23:59 -23.87650 -46.04144 6074 ft 180 kts 69°
2026-04-25 23:59 -23.87231 -46.02847 6079 ft 182 kts 69°
2026-04-26 00:00 -23.86808 -46.01540 6082 ft 183 kts 69°
2026-04-26 00:00 -23.86386 -46.00238 6166 ft 179 kts 69°
2026-04-26 00:00 -23.85972 -45.98978 6307 ft 174 kts 69°
2026-04-26 00:00 -23.85567 -45.97745 6444 ft 171 kts 69°
2026-04-26 00:01 -23.85170 -45.96527 6565 ft 170 kts 69°
2026-04-26 00:01 -23.84769 -45.95299 6569 ft 176 kts 69°
2026-04-26 00:01 -23.84353 -45.94022 6585 ft 180 kts 69°
2026-04-26 00:01 -23.83933 -45.92721 6583 ft 182 kts 69°
2026-04-26 00:02 -23.83509 -45.91410 6583 ft 184 kts 69°
2026-04-26 00:02 -23.83084 -45.90093 6581 ft 185 kts 69°
2026-04-26 00:02 -23.82656 -45.88768 6582 ft 185 kts 69°
2026-04-26 00:02 -23.82226 -45.87441 6583 ft 185 kts 69°
2026-04-26 00:03 -23.81796 -45.86112 6582 ft 185 kts 69°
2026-04-26 00:03 -23.81366 -45.84785 6584 ft 185 kts 69°
2026-04-26 00:03 -23.80940 -45.83473 6587 ft 186 kts 69°
2026-04-26 00:03 -23.80506 -45.82143 6586 ft 186 kts 69°
2026-04-26 00:04 -23.80072 -45.80814 6585 ft 185 kts 69°
2026-04-26 00:04 -23.79637 -45.79487 6580 ft 185 kts 69°
2026-04-26 00:04 -23.79200 -45.78157 6579 ft 186 kts 69°
2026-04-26 00:04 -23.78764 -45.76832 6584 ft 185 kts 69°
2026-04-26 00:05 -23.78333 -45.75524 6581 ft 186 kts 69°
2026-04-26 00:05 -23.77897 -45.74196 6588 ft 186 kts 69°
2026-04-26 00:05 -23.77461 -45.72869 6583 ft 186 kts 69°
2026-04-26 00:05 -23.77022 -45.71537 6583 ft 186 kts 69°
2026-04-26 00:06 -23.76581 -45.70207 6592 ft 187 kts 69°
2026-04-26 00:06 -23.76140 -45.68864 6586 ft 187 kts 69°
2026-04-26 00:06 -23.75706 -45.67545 6580 ft 187 kts 69°
2026-04-26 00:06 -23.75264 -45.66211 6582 ft 187 kts 69°
2026-04-26 00:07 -23.74821 -45.64880 6584 ft 186 kts 69°
2026-04-26 00:07 -23.74377 -45.63551 6582 ft 187 kts 69°
2026-04-26 00:07 -23.73933 -45.62225 6587 ft 186 kts 69°
2026-04-26 00:07 -23.73491 -45.60897 6586 ft 187 kts 69°
2026-04-26 00:08 -23.73047 -45.59557 6585 ft 187 kts 69°
2026-04-26 00:08 -23.72604 -45.58220 6577 ft 188 kts 69°
2026-04-26 00:08 -23.72159 -45.56872 6420 ft 192 kts 69°
2026-04-26 00:08 -23.71695 -45.55498 6248 ft 193 kts 69°
2026-04-26 00:09 -23.71226 -45.54122 6076 ft 193 kts 69°
2026-04-26 00:09 -23.70756 -45.52753 5907 ft 193 kts 69°
2026-04-26 00:09 -23.70281 -45.51388 5769 ft 191 kts 68°
2026-04-26 00:09 -23.69816 -45.50042 5670 ft 188 kts 69°
2026-04-26 00:10 -23.69359 -45.48712 5571 ft 186 kts 69°
2026-04-26 00:10 -23.68905 -45.47400 5472 ft 184 kts 69°
2026-04-26 00:10 -23.68460 -45.46112 5373 ft 184 kts 69°
2026-04-26 00:10 -23.67989 -45.44816 5278 ft 183 kts 67°
2026-04-26 00:11 -23.67502 -45.43539 5182 ft 182 kts 67°
2026-04-26 00:11 -23.67017 -45.42266 5084 ft 182 kts 67°
2026-04-26 00:11 -23.66531 -45.40992 4991 ft 181 kts 67°
2026-04-26 00:11 -23.66048 -45.39723 4894 ft 181 kts 67°
2026-04-26 00:12 -23.65565 -45.38455 4798 ft 181 kts 67°
2026-04-26 00:12 -23.65082 -45.37190 4700 ft 180 kts 67°
2026-04-26 00:12 -23.64604 -45.35944 4603 ft 180 kts 67°
2026-04-26 00:12 -23.64113 -45.34681 4478 ft 181 kts 66°
2026-04-26 00:13 -23.63605 -45.33418 4359 ft 182 kts 66°
2026-04-26 00:13 -23.63093 -45.32152 4236 ft 182 kts 66°
2026-04-26 00:13 -23.62579 -45.30888 4115 ft 182 kts 66°
2026-04-26 00:13 -23.62062 -45.29620 3993 ft 182 kts 66°
2026-04-26 00:14 -23.61546 -45.28365 3924 ft 179 kts 66°
2026-04-26 00:14 -23.61040 -45.27163 3920 ft 174 kts 65°
2026-04-26 00:14 -23.60534 -45.25973 3915 ft 171 kts 65°
2026-04-26 00:14 -23.60036 -45.24799 3911 ft 170 kts 65°
2026-04-26 00:15 -23.59543 -45.23630 3911 ft 169 kts 65°
2026-04-26 00:15 -23.59053 -45.22463 3911 ft 169 kts 66°
2026-04-26 00:15 -23.58565 -45.21300 3910 ft 169 kts 66°
2026-04-26 00:15 -23.58078 -45.20140 3916 ft 168 kts 66°
2026-04-26 00:16 -23.57597 -45.18991 3847 ft 172 kts 66°
2026-04-26 00:16 -23.57097 -45.17781 3664 ft 176 kts 66°
2026-04-26 00:16 -23.56593 -45.16562 3471 ft 176 kts 66°
2026-04-26 00:16 -23.56072 -45.15356 3344 ft 176 kts 65°
2026-04-26 00:17 -23.55542 -45.14142 3231 ft 178 kts 65°
2026-04-26 00:17 -23.55009 -45.12920 3112 ft 178 kts 65°
2026-04-26 00:17 -23.54475 -45.11697 2973 ft 180 kts 65°
2026-04-26 00:17 -23.53955 -45.10492 2752 ft 175 kts 65°
2026-04-26 00:18 -23.53439 -45.09319 2531 ft 167 kts 64°
2026-04-26 00:18 -23.52934 -45.08205 2350 ft 159 kts 61°
2026-04-26 00:18 -23.52229 -45.07315 2206 ft 152 kts 40°
2026-04-26 00:18 -23.51422 -45.06621 2079 ft 147 kts 37°
2026-04-26 00:19 -23.50472 -45.06317 1940 ft 145 kts 353°
2026-04-26 00:19 -23.49509 -45.06607 1813 ft 142 kts 343°
2026-04-26 00:19 -23.48584 -45.06920 1686 ft 137 kts 344°
2026-04-26 00:19 -23.47680 -45.06852 1554 ft 133 kts 33°
2026-04-26 00:20 -23.47190 -45.06061 1527 ft 123 kts 68°
2026-04-26 00:20 -23.46886 -45.05241 1534 ft 111 kts 68°
2026-04-26 00:20 -23.46606 -45.04491 1513 ft 103 kts 68°
2026-04-26 00:20 -23.46340 -45.03779 1515 ft 101 kts 68°
2026-04-26 00:21 -23.46064 -45.03068 1521 ft 105 kts 59°
2026-04-26 00:21 -23.45413 -45.02699 1413 ft 115 kts 354°
2026-04-26 00:21 -23.44666 -45.02997 1326 ft 118 kts 337°
2026-04-26 00:21 -23.43905 -45.03336 1218 ft 118 kts 338°
2026-04-26 00:22 -23.43206 -45.03780 1034 ft 116 kts 308°
2026-04-26 00:22 -23.43100 -45.04569 831 ft 104 kts 256°
2026-04-26 00:22 -23.43422 -45.05275 526 ft 106 kts 243°
2026-04-26 00:22 -23.43662 -45.06014 243 ft 99 kts 256°
2026-04-26 00:23 -23.43860 -45.06723 128 ft 98 kts 252°
2026-04-26 00:23 -23.44066 -45.07422 -6 ft 92 kts 255°
2026-04-26 00:23 -23.44142 -45.07695 -9 ft 3 kts 249°
2026-04-26 00:23 -23.44143 -45.07708 -9 ft 4 kts 278°
2026-04-26 00:24 -23.44147 -45.07704 -9 ft 2 kts 97°
2026-04-26 00:24 -23.44139 -45.07669 -10 ft 8 kts 74°
2026-04-26 00:24 -23.44118 -45.07597 -8 ft 11 kts 72°
2026-04-26 00:24 -23.44094 -45.07515 -7 ft 11 kts 71°
2026-04-26 00:25 -23.44067 -45.07429 -8 ft 14 kts 70°
2026-04-26 00:25 -23.44037 -45.07319 -6 ft 16 kts 73°
2026-04-26 00:25 -23.44021 -45.07263 -4 ft 0 kts 70°
2026-04-26 00:26 -23.44017 -45.07249 0 ft 7 kts 74°
2026-04-26 00:26 -23.43998 -45.07165 -5 ft 14 kts 88°
2026-04-26 00:26 -23.44038 -45.07124 -4 ft 9 kts 164°
2026-04-26 00:27 -23.44066 -45.07121 -2 ft 6 kts 180°
2026-04-26 00:27 -23.44098 -45.07101 -6 ft 5 kts 88°
2026-04-26 00:27 -23.44094 -45.07084 -7 ft 0 kts 75°